This demonstration page uses our WeatherBlox Daily Observations layout. Learn more.

38.89511, -77.03637

Hourly Observations for June 10, 2015

Temp ( °F °C ) Dew Point ( °F °C ) Humidity (%) Winds ( mph kmh ) Pressure ( in mb ) Visibility ( mi km ) Precip ( " mm )
12:52 am 00:52 Mostly Cloudy 77 25 55 13 47 47 NW 12 19 29.83 1010 10 16.09344 0 0
1:52 am 01:52 Partly Cloudy 73 23 55 13 53 53 NW 6 9 29.85 1011 10 16.09344 0 0
2:52 am 02:52 Partly Cloudy 73 23 57 14 57 57 NNE 3 6 29.85 1011 10 16.09344 0 0
3:52 am 03:52 Partly Cloudy 70 21 57 14 64 64 N 6 9 29.85 1011 10 16.09344 0 0
4:52 am 04:52 Partly Cloudy 68 20 57 14 69 69 N 7 11 29.88 1012 10 16.09344 0 0
5:52 am 05:52 Mostly Cloudy 70 21 57 14 64 64 Calm 29.88 1012 10 16.09344 0 0
6:52 am 06:52 Mostly Cloudy 72 22 57 14 61 61 Calm 29.91 1013 10 16.09344 0 0
7:52 am 07:52 Mostly Cloudy 73 23 61 16 65 65 Calm 29.94 1014 10 16.09344 0 0
8:52 am 08:52 Sunny 75 24 61 16 61 61 SE 3 6 29.94 1014 10 16.09344 0 0
9:52 am 09:52 Sunny 75 24 63 17 65 65 S 7 11 29.94 1014 10 16.09344 0 0
10:52 am 10:52 Sunny 79 26 63 17 58 58 S 6 9 29.94 1014 10 16.09344 0 0
11:52 am 11:52 Mostly Sunny 81 27 63 17 54 54 S 7 11 29.94 1014 10 16.09344 0 0
12:52 pm 12:52 Mostly Sunny 82 28 63 17 51 51 S 9 15 29.94 1014 10 16.09344 0 0
1:52 pm 13:52 Mostly Sunny 82 28 63 17 51 51 S 13 20 29.91 1013 10 16.09344 0 0
2:52 pm 14:52 Partly Cloudy 84 29 61 16 45 45 S 14 22 29.91 1013 10 16.09344 0 0
3:52 pm 15:52 Partly Cloudy 84 29 63 17 48 48 S 13 20 29.91 1013 10 16.09344 0 0
4:52 pm 16:52 Mostly Sunny 84 29 61 16 45 45 SW 9 15 29.91 1013 9 14.484096 0 0
5:52 pm 17:52 Mostly Sunny 82 28 61 16 48 48 SSW 10 17 29.91 1013 9 14.484096 0 0
6:52 pm 18:52 Mostly Sunny 82 28 63 17 51 51 S 12 19 29.88 1012 9 14.484096 0 0
7:52 pm 19:52 Mostly Sunny 81 27 66 19 62 62 S 8 13 29.91 1013 8 12.874752 0 0
8:52 pm 20:52 Mostly Clear 79 26 64 18 61 61 S 9 15 29.88 1012 9 14.484096 0 0
9:52 pm 21:52 Clear 75 24 64 18 69 69 S 9 15 29.91 1013 10 16.09344 0 0
10:52 pm 22:52 Clear 75 24 64 18 69 69 S 7 11 29.91 1013 10 16.09344 0 0
11:52 pm 23:52 Clear 73 23 64 18 74 74 S 6 9 29.91 1013 10 16.09344 0 0

Powered by AerisWeather